Theta_e
316 317 314 311 298 295 292 295 298 299 298 303 305 303 300 299 300 299 307 312 313 314 316 317 322 323 323 323 324 324 325 326 327 328 329 331 332 334 338 341 342 346 349 349 349 350 350 352 351
308 313 312 306 292 289 291 297 296 298 303 303 302 303 301 297 302 304 305 311 312 312 313 314 319 320 321 321 321 322 322 323 323 325 325 326 327 328 331 335 339 341 345 348 347 348 349 350 350
307 311 305 298 294 288 290 295 296 301 303 301 299 300 300 297 303 304 308 309 309 310 311 312 316 318 318 319 319 319 319 320 320 321 321 322 322 324 325 327 331 335 338 342 347 347 348 349 349
306 306 302 293 291 295 295 295 297 298 300 300 300 297 298 300 303 305 308 307 305 307 308 311 314 316 316 316 316 316 316 317 317 317 317 318 318 318 320 321 324 328 332 335 339 341 345 346 347
305 303 293 290 291 295 297 297 295 295 296 299 299 297 295 299 304 306 304 304 302 302 304 305 310 311 313 313 313 313 313 314 314 314 314 315 315 315 316 317 318 321 325 329 332 335 337 341 344
297 297 289 287 291 296 294 295 294 295 296 296 295 296 295 300 301 302 303 302 302 300 301 302 305 306 308 308 309 310 310 311 311 311 312 312 312 312 314 314 315 317 319 321 325 327 330 334 339
296 294 289 289 291 293 295 296 291 293 294 295 298 292 294 297 301 302 301 301 301 300 301 300 300 302 306 306 305 306 307 307 308 308 309 309 309 310 311 311 312 314 316 317 319 320 323 329 334
296 294 289 290 290 291 293 293 294 293 292 297 297 292 291 297 302 302 300 299 298 299 299 299 299 299 299 300 303 303 304 305 306 306 306 306 307 307 307 307 308 311 313 314 315 317 318 321 324
299 288 287 290 291 291 293 291 294 294 293 293 295 293 295 301 301 299 297 298 297 299 298 297 297 298 298 297 300 303 303 304 304 304 305 303 302 302 303 306 308 310 310 311 313 314 316 319 320
292 288 291 293 291 291 293 291 293 291 292 292 293 295 298 300 298 296 295 295 296 296 296 296 296 296 297 298 298 297 299 298 299 299 298 300 300 301 304 305 308 308 308 310 312 313 316 316 315
294 289 294 293 294 294 292 291 293 289 290 292 291 295 295 296 296 296 296 296 296 297 297 296 295 295 295 296 295 296 296 296 297 297 298 298 298 299 299 300 301 301 305 303 305 306 307 309 311
290 294 294 295 294 293 291 293 291 291 292 294 293 296 295 295 295 296 296 297 298 297 296 295 294 294 294 294 294 294 294 294 295 295 297 296 295 296 297 298 299 300 302 301 302 303 305 306 308
292 293 295 295 294 292 293 291 290 291 294 296 296 296 295 295 295 296 297 299 299 296 295 294 294 293 293 293 293 293 293 293 294 294 296 296 294 294 296 297 298 299 300 300 300 301 302 303 305
293 293 292 293 293 293 291 290 291 292 294 293 294 293 294 295 296 296 296 296 298 298 295 294 294 293 292 291 291 291 292 292 293 294 295 295 295 294 294 295 296 297 299 299 299 299 300 301 303
293 288 291 293 293 291 291 287 288 293 294 292 291 292 293 294 295 294 296 296 297 296 296 293 293 293 291 291 291 291 291 292 292 293 294 295 296 293 293 294 295 296 298 298 298 299 300 300 302
289 289 285 291 291 290 288 283 291 292 290 290 291 291 292 294 295 294 295 296 296 295 293 293 294 292 291 291 290 291 291 290 291 292 293 294 295 294 293 293 293 295 296 297 297 298 298 299 300
289 283 287 289 292 290 287 284 292 292 292 291 291 292 292 292 293 294 294 294 293 293 292 291 291 290 290 290 290 290 290 290 290 290 291 292 293 294 292 292 293 295 296 296 297 296 296 296 298
283 283 286 285 289 288 286 286 290 293 293 292 291 291 291 291 291 294 294 293 292 291 290 290 290 289 289 289 289 289 289 290 289 289 290 292 291 292 292 292 293 295 294 294 296 297 298 297 296
286 282 282 287 290 285 285 285 288 291 291 291 290 290 289 286 289 291 291 290 289 288 288 288 287 287 287 285 284 285 285 286 287 288 290 290 291 292 291 291 292 292 292 292 294 296 295 295 296
285 282 282 287 288 285 283 284 288 289 289 287 287 287 287 286 285 288 288 287 287 287 287 286 287 286 286 286 285 284 284 285 286 287 289 290 290 291 290 290 290 290 290 290 292 294 293 294 295
284 282 281 280 284 286 283 280 284 287 287 288 287 287 287 286 284 284 285 284 285 285 285 286 285 285 285 285 285 285 285 285 285 286 286 288 289 289 290 289 288 289 289 290 292 294 293 291 294
281 285 283 281 278 275 282 272 284 286 284 286 286 285 285 284 285 285 285 284 283 284 284 284 285 284 285 284 283 282 281 281 283 284 285 286 288 288 289 288 288 289 290 290 291 293 292 292 290
282 285 282 280 278 277 279 271 281 284 282 282 283 284 284 283 282 282 282 283 283 283 283 283 283 283 284 283 283 281 281 282 283 283 283 284 285 287 287 287 286 287 287 287 288 289 290 290 290
286 282 282 281 281 272 276 276 277 277 279 282 284 284 284 283 283 284 284 283 282 283 282 282 282 282 283 282 281 281 280 280 280 281 281 282 283 284 285 286 286 286 286 287 287 288 289 288 289
283 279 271 272 268 269 277 274 277 281 282 282 280 282 282 284 283 283 282 282 282 281 282 281 280 280 281 281 280 280 280 280 279 280 282 283 282 283 284 284 284 284 285 285 286 287 287 288 287
280 278 271 270 268 271 277 269 277 280 280 281 280 282 284 284 283 282 281 281 279 280 280 279 280 280 280 279 279 279 279 281 281 282 282 282 281 282 284 283 283 283 284 284 285 284 285 286 286
279 278 279 274 269 267 273 278 280 281 282 282 280 283 283 283 282 281 279 280 279 278 279 278 279 278 278 277 277 277 281 281 281 281 281 281 281 282 282 282 282 282 282 283 283 282 282 284 284
281 282 273 272 264 266 274 274 275 276 277 282 281 281 282 283 282 281 280 280 279 278 277 277 277 272 273 275 276 279 280 281 280 280 279 279 281 281 281 281 281 282 282 278 278 282 283 283 283
279 277 277 276 273 268 268 272 278 277 275 274 279 282 282 282 280 279 280 278 274 273 271 271 271 269 271 273 274 276 279 280 279 279 279 280 280 281 281 281 281 281 281 281 281 282 282 282 281
281 281 279 271 271 271 270 272 275 275 275 277 280 282 280 279 278 276 276 273 270 269 268 268 268 267 269 270 273 276 279 279 278 279 279 280 280 281 281 281 281 281 281 281 278 279 281 280 280
Wind_Speed
15 10 6 1 2 4 8 10 7 5 1 5 8 5 4 6 5 4 6 11 11 11 10 8 11 13 14 15 15 16 16 16 16 14 15 15 16 15 15 14 13 15 12 7 10 9 9 7 8
10 4 3 4 3 6 8 9 8 4 8 7 4 5 4 6 6 9 8 9 10 10 10 7 10 12 13 14 15 15 15 15 16 16 15 15 14 15 15 15 14 16 15 12 7 9 8 7 8
10 7 2 3 5 8 7 7 8 9 7 2 2 1 6 4 9 9 12 10 9 10 10 7 10 11 13 14 14 14 14 14 15 15 15 14 14 13 14 15 14 14 14 15 13 9 9 6 7
5 3 4 3 10 11 7 5 7 5 4 3 4 3 6 6 9 9 10 10 9 10 10 8 10 11 12 13 13 13 13 13 13 13 13 13 13 13 14 13 14 13 14 14 14 14 13 8 7
4 4 4 6 12 13 10 4 5 6 4 6 5 3 5 3 11 12 10 9 9 8 9 7 10 11 12 12 13 12 12 12 12 12 12 13 13 12 13 13 13 14 13 13 14 13 14 13 10
4 3 4 8 12 11 3 3 3 5 8 5 4 5 6 10 10 9 8 8 9 8 7 7 9 10 11 12 12 12 12 12 12 12 13 14 12 12 13 14 12 13 14 13 12 13 12 14 13
4 4 5 11 13 9 5 7 1 5 7 5 8 3 6 9 10 9 8 8 8 8 7 5 6 6 8 9 11 11 11 11 11 12 13 14 12 12 11 13 13 15 15 14 14 13 12 11 12
3 3 6 7 6 6 4 3 5 4 4 5 3 3 5 10 11 9 7 8 8 6 6 6 5 5 4 6 9 7 9 10 10 11 13 13 12 13 13 12 12 14 14 14 14 14 13 13 12
2 3 5 8 7 1 5 3 5 2 5 1 4 4 4 12 11 7 6 7 6 6 5 5 4 5 3 3 4 4 7 8 9 9 13 8 4 6 7 10 12 14 12 15 15 14 13 13 13
3 4 5 3 6 7 8 2 7 1 6 6 5 9 7 9 8 9 8 8 8 8 7 5 5 4 2 3 4 3 4 4 4 4 5 4 6 5 7 7 12 13 14 14 13 14 14 11 4
5 5 1 4 8 9 7 8 5 4 9 6 4 12 13 9 9 9 9 7 9 8 6 7 5 4 4 3 2 2 2 3 3 6 5 4 5 4 4 3 4 4 7 4 6 7 4 7 5
4 8 9 6 5 2 6 8 8 7 14 3 4 9 12 13 12 10 9 9 8 8 9 8 5 4 4 2 3 2 3 2 3 4 5 4 3 5 4 3 4 4 3 5 5 3 5 6 7
9 9 6 7 6 6 8 10 9 13 11 10 5 5 7 9 9 8 8 8 7 8 8 8 6 4 3 2 3 3 3 3 4 4 5 4 4 4 4 4 4 4 4 4 4 4 5 6 7
5 7 11 9 10 7 9 7 7 10 7 6 7 8 9 8 10 8 8 7 8 8 8 8 6 4 3 2 3 2 3 3 3 3 4 5 4 4 4 5 5 5 4 4 4 5 6 6 5
5 6 9 12 9 3 5 8 11 17 12 10 7 8 7 11 9 8 9 7 9 7 9 8 7 4 3 3 3 2 2 3 3 4 5 5 4 5 5 4 4 4 4 6 5 5 5 5 6
4 5 4 3 6 4 2 7 6 6 4 5 5 8 9 9 7 6 6 9 8 9 9 7 5 5 2 3 3 3 3 3 3 3 4 5 5 5 5 4 5 5 5 4 4 4 6 7 7
7 4 5 1 5 6 6 6 7 2 5 8 8 9 7 7 7 7 7 8 9 9 8 7 6 4 3 2 2 3 4 3 3 3 3 5 5 6 5 4 5 6 5 5 5 3 4 7 7
3 4 5 7 3 6 8 15 14 16 13 13 9 8 8 9 3 10 9 9 9 9 8 7 4 3 2 2 3 3 3 3 3 4 3 5 4 6 5 4 5 5 4 6 6 7 5 9 8
4 4 8 10 6 5 8 13 14 15 13 12 9 7 5 13 8 9 9 9 9 8 6 4 3 3 2 2 2 2 2 3 3 3 5 4 4 4 4 4 4 5 6 8 9 9 11 9 9
5 7 8 8 3 4 8 19 22 18 9 6 8 10 9 8 8 8 8 7 4 5 4 4 2 2 2 1 1 2 2 3 3 4 5 5 3 3 5 4 4 5 6 7 8 9 7 7 8
5 5 4 5 9 9 8 10 4 5 9 8 8 8 9 8 7 6 6 4 3 4 5 4 4 3 3 3 3 3 3 3 3 2 3 4 5 5 5 5 4 6 7 7 8 7 8 8 6
1 5 4 5 6 3 7 8 6 7 7 8 7 8 7 7 6 5 6 5 4 2 5 3 2 2 4 4 4 5 3 4 3 3 3 4 5 5 5 5 5 6 6 7 6 8 5 7 9
1 4 4 3 3 6 3 2 8 8 7 7 7 6 6 5 3 2 2 4 4 4 2 2 0 2 2 3 4 4 5 4 4 4 6 5 5 5 5 5 5 7 6 6 8 10 8 6 8
4 4 5 3 2 3 3 4 3 3 2 5 5 7 6 4 3 5 6 5 4 4 3 3 1 3 3 3 4 5 5 5 4 5 5 4 3 4 5 7 7 8 7 7 7 9 8 9 9
2 3 1 2 1 5 1 0 5 3 4 3 4 8 7 7 2 2 4 3 4 4 2 1 1 3 2 3 4 5 5 6 6 6 5 7 4 5 6 7 7 7 8 9 8 7 8 8 8
2 0 3 4 3 2 4 5 5 3 2 3 5 7 7 5 3 3 3 2 2 2 1 2 2 3 3 4 4 4 4 3 4 6 5 4 5 5 6 7 7 9 10 11 9 7 8 8 8
3 2 3 1 2 1 5 1 3 5 2 2 5 5 6 6 5 3 2 2 1 1 1 2 2 3 3 3 3 4 4 5 4 7 6 5 6 6 7 7 9 9 11 12 12 10 11 9 10
4 1 2 1 2 4 4 3 6 4 6 8 8 7 8 6 6 4 2 2 1 1 2 4 4 1 2 4 3 3 4 4 5 4 6 7 7 7 7 9 8 8 9 7 6 9 9 10 10
3 2 2 2 2 3 3 6 3 10 4 6 8 7 8 7 5 4 4 0 3 1 1 3 2 2 4 4 3 4 4 4 3 4 5 6 6 7 8 8 8 10 10 11 9 9 9 10 11
3 1 6 3 3 3 1 8 2 4 4 4 6 6 6 6 7 4 2 1 2 4 4 4 3 4 4 4 4 4 5 4 6 6 4 4 7 6 7 7 8 8 8 9 7 9 9 10 11
Wind_Direction
291 238 243 260 239 223 266 246 255 117 160 41 14 11 28 41 16 146 128 117 123 124 111 74 73 69 61 56 52 48 45 41 41 34 31 28 26 20 16 13 8 7 10 283 251 242 247 236 250
302 246 257 267 245 247 254 243 116 65 71 56 17 314 293 83 77 117 110 136 131 115 87 70 69 68 62 57 51 46 42 37 34 31 28 24 17 16 13 13 10 11 8 7 301 265 253 254 249
275 270 248 205 214 245 275 50 15 79 74 54 165 5 3 77 101 142 129 129 113 101 97 79 74 71 63 57 52 49 41 36 32 28 23 18 13 12 11 10 11 4 5 5 6 336 293 281 268
251 214 271 251 257 268 282 58 60 81 84 89 314 123 77 309 139 118 135 134 115 106 102 78 75 71 63 57 52 48 41 37 31 25 19 14 7 6 4 7 360 8 359 359 359 355 357 342 307
256 261 242 227 248 259 267 69 63 302 207 168 180 178 97 67 94 126 147 144 129 121 119 87 78 72 66 58 53 48 42 36 29 25 17 10 3 3 360 359 360 1 358 352 351 347 344 344 341
259 272 253 240 247 254 87 80 306 246 280 106 145 265 123 131 132 148 153 140 124 117 118 116 90 73 65 55 46 42 37 32 26 19 12 6 2 1 357 357 352 354 348 345 345 341 335 333 333
265 247 257 278 281 305 8 42 335 265 264 252 131 271 119 157 152 149 161 131 132 128 127 108 93 120 105 74 45 39 33 27 24 19 12 2 359 4 0 354 355 345 341 335 333 331 331 326 316
318 276 281 260 261 261 57 15 55 338 318 334 72 228 162 170 142 140 155 136 132 127 122 127 118 82 52 113 60 46 35 28 21 15 13 5 4 355 358 355 342 340 333 329 321 317 316 317 310
297 285 266 267 297 65 125 360 98 84 303 211 171 53 68 126 127 146 155 155 146 141 131 111 98 89 61 118 74 40 35 28 25 12 6 1 344 341 343 333 339 335 334 329 321 314 311 306 291
223 231 248 10 353 348 358 131 305 267 256 247 229 97 108 133 156 167 181 180 172 166 154 134 105 84 58 53 36 29 25 24 8 23 9 350 326 329 347 336 332 345 335 331 334 333 325 297 286
207 230 265 338 33 5 322 307 250 252 265 250 257 183 163 161 178 191 195 193 180 174 150 133 115 104 55 80 342 31 10 24 343 17 344 347 340 335 330 334 330 331 320 338 332 315 323 323 325
256 249 262 315 47 327 286 310 309 263 243 4 353 35 162 174 185 197 196 195 172 163 139 126 114 124 94 9 64 36 28 4 18 333 349 349 347 332 330 322 322 313 311 319 309 309 314 311 307
234 265 292 314 283 254 260 268 262 269 274 285 236 116 167 183 199 198 204 183 164 143 130 132 133 113 75 50 39 23 13 13 349 343 340 3 335 323 319 312 309 312 311 303 321 324 322 314 309
20 309 290 285 267 275 267 270 298 255 249 270 265 214 192 203 201 196 192 189 149 143 135 121 118 86 82 45 59 354 349 347 333 326 328 332 326 323 321 330 313 308 309 323 328 310 295 284 286
276 295 276 246 228 211 23 268 223 248 252 244 230 273 223 202 214 205 180 176 144 142 122 123 123 105 42 4 37 340 310 346 319 319 316 320 326 327 319 315 310 307 318 329 322 302 295 293 290
244 226 284 58 119 101 136 282 359 51 14 301 263 240 231 213 197 182 157 142 137 120 114 117 111 113 55 23 354 323 331 324 303 313 315 325 322 326 324 317 319 317 324 316 308 308 334 325 316
204 256 272 10 183 136 189 278 305 222 245 262 258 267 248 171 146 122 91 107 108 110 120 120 129 133 91 344 320 298 291 291 289 300 328 326 338 338 321 315 307 311 313 306 300 342 312 306 309
349 288 332 311 143 204 224 254 272 273 272 266 261 258 230 165 155 128 101 93 92 95 104 120 118 101 73 308 287 292 306 325 347 333 319 355 335 309 307 319 304 299 329 312 306 290 298 303 299
348 295 272 288 333 344 290 291 282 280 281 282 271 280 292 76 62 73 70 74 89 97 107 129 136 107 69 15 334 342 331 321 326 339 331 305 276 304 314 291 311 343 346 334 325 316 305 302 309
288 279 278 280 86 338 278 284 281 279 288 49 31 42 63 78 61 70 88 88 109 127 120 134 169 82 54 13 360 276 298 283 279 261 254 258 294 354 313 333 315 327 318 304 301 303 300 296 301
254 258 323 318 334 263 312 282 303 91 81 77 65 65 38 68 95 89 86 110 112 144 163 106 55 28 357 343 334 304 306 304 315 335 356 345 339 323 304 309 318 305 293 292 298 295 306 298 289
283 29 8 326 4 280 55 288 325 87 90 86 84 69 64 60 67 117 149 149 182 107 77 102 73 359 309 1 326 325 306 300 302 328 322 323 311 320 328 343 327 307 302 289 295 296 318 317 306
181 355 292 297 311 333 295 85 268 118 78 72 66 78 80 85 39 57 102 69 57 65 57 1 152 259 312 343 324 316 313 318 331 326 326 327 321 341 344 331 319 301 297 310 311 299 300 289 296
343 306 253 218 294 262 233 159 296 351 298 58 72 72 29 359 290 217 162 154 219 189 203 233 2 323 359 338 315 310 311 323 323 326 315 296 321 337 334 317 317 309 300 296 298 291 288 290 280
85 256 278 272 309 235 197 178 275 59 13 20 330 321 309 286 325 11 320 194 202 178 227 116 68 294 324 321 316 315 324 314 303 295 294 308 315 317 313 319 312 308 303 295 282 281 279 271 269
141 201 141 268 321 325 161 241 245 184 237 263 265 272 290 354 356 339 335 0 338 94 348 350 332 334 346 339 316 328 302 279 293 297 311 323 312 306 306 305 298 289 285 284 287 285 275 271 269
167 137 21 282 101 52 228 179 55 131 2 306 334 336 326 320 314 298 251 238 242 341 349 359 329 350 352 337 332 293 288 293 298 300 301 293 290 291 302 292 281 284 288 288 286 282 278 271 270
24 33 90 321 269 264 242 230 207 193 339 347 332 309 302 298 310 306 272 230 199 117 27 3 4 331 305 286 270 287 289 286 288 291 287 284 281 281 284 279 279 286 290 275 271 284 281 284 283
123 168 241 12 183 225 301 257 284 145 206 255 283 297 305 312 289 299 298 255 104 42 282 254 273 273 270 273 287 283 282 282 282 271 268 273 284 285 279 282 298 302 296 298 288 283 279 279 282
23 335 195 168 200 241 231 272 321 160 231 241 301 327 317 313 313 288 288 285 228 237 242 243 264 250 254 254 264 285 285 288 284 284 277 285 286 289 294 299 292 287 293 290 282 286 288 289 285